Lake Guntersville Weather Center

Moon Phase Calendar



Lake Guntersville Water Level
Online Cameras

 


      

Current Conditions in Keel (historical)
10/5/2022 8:36:45 PM

59°F
Feels Like 58
Clear
Humidity
64%
Pressure
30"
Wind
3.4 mph (NNE)
Dew Point
47°F
UV Index
0/10 (Low)
Visibility
6 mi

Hourly Forecast

Date & Time Wed, Oct 5
8:00 PM
Wed, Oct 5
9:00 PM
Wed, Oct 5
10:00 PM
Wed, Oct 5
11:00 PM
Thu, Oct 6
12:00 AM
Thu, Oct 6
1:00 AM
Thu, Oct 6
2:00 AM
Thu, Oct 6
3:00 AM
Thu, Oct 6
4:00 AM
Thu, Oct 6
5:00 AM
Thu, Oct 6
6:00 AM
Thu, Oct 6
7:00 AM
Thu, Oct 6
8:00 AM
Thu, Oct 6
9:00 AM
Thu, Oct 6
10:00 AM
Thu, Oct 6
11:00 AM
Thu, Oct 6
12:00 PM
Thu, Oct 6
1:00 PM
Thu, Oct 6
2:00 PM
Thu, Oct 6
3:00 PM
Thu, Oct 6
4:00 PM
Thu, Oct 6
5:00 PM
Thu, Oct 6
6:00 PM
Thu, Oct 6
7:00 PM
Thu, Oct 6
8:00 PM
Thu, Oct 6
9:00 PM
Thu, Oct 6
10:00 PM
Thu, Oct 6
11:00 PM
Fri, Oct 7
12:00 AM
Fri, Oct 7
1:00 AM
Fri, Oct 7
2:00 AM
Fri, Oct 7
3:00 AM
Fri, Oct 7
4:00 AM
Fri, Oct 7
5:00 AM
Fri, Oct 7
6:00 AM
Fri, Oct 7
7:00 AM
Fri, Oct 7
8:00 AM
Fri, Oct 7
9:00 AM
Fri, Oct 7
10:00 AM
Fri, Oct 7
11:00 AM
Fri, Oct 7
12:00 PM
Fri, Oct 7
1:00 PM
Fri, Oct 7
2:00 PM
Fri, Oct 7
3:00 PM
Fri, Oct 7
4:00 PM
Fri, Oct 7
5:00 PM
Fri, Oct 7
6:00 PM
Fri, Oct 7
7:00 PM
Condition
Clear

Clear

Clear

Clear

Clear

Clear

Clear

Clear

Clear

Clear

Clear

Clear

Clear

Clear

Clear

Clear

Clear

Clear

Clear

Clear

Clear

Clear

Clear

Clear

Clear

Clear

Clear

Clear

Clear

Clear

Clear

Clear

Clear

Clear

Clear

Clouds

Clouds

Clouds

Clouds

Clouds

Clouds

Clouds

Clouds

Clouds

Clouds

Clouds

Clouds

Clouds
Temperature 59°F59°F59°F58°F56°F55°F53°F52°F52°F51°F51°F51°F57°F64°F70°F73°F76°F78°F79°F79°F79°F77°F69°F65°F63°F62°F61°F60°F59°F58°F58°F57°F56°F56°F55°F55°F60°F66°F70°F75°F77°F79°F79°F78°F78°F76°F69°F66°F
Feels Like 58°F58°F57°F56°F55°F53°F51°F51°F50°F50°F49°F49°F55°F62°F68°F72°F75°F77°F79°F79°F79°F76°F68°F63°F61°F60°F59°F58°F57°F56°F56°F55°F54°F54°F53°F53°F58°F64°F69°F74°F77°F79°F78°F77°F77°F76°F69°F65°F
Cloudiness 0%0%0%0%0%0%0%0%0%2%3%3%7%6%5%4%3%3%0%2%3%4%4%4%0%2%1%1%1%1%0%0%0%1%2%16%97%84%89%92%94%94%100%100%100%98%98%98%
Visibility 6 mi6 mi6 mi6 mi6 mi6 mi6 mi6 mi6 mi6 mi6 mi6 mi6 mi6 mi6 mi6 mi6 mi6 mi6 mi6 mi6 mi6 mi6 mi6 mi6 mi6 mi6 mi6 mi6 mi6 mi6 mi6 mi6 mi6 mi6 mi6 mi6 mi6 mi6 mi6 mi6 mi6 mi6 mi6 mi6 mi6 mi6 mi6 mi
Precipitation 0%0%0%0%0%0%0%0%0%0%0%0%0%0%0%0%0%0%0%0%0%0%0%0%0%0%0%0%0%0%0%0%0%0%0%0%0%0%0%0%0%0%0%0%0%0%0%0%
Humidity 63%64%65%66%67%68%70%70%71%72%72%73%63%52%44%37%31%28%27%26%27%39%44%44%45%46%48%49%49%51%52%54%56%58%60%62%58%49%44%40%38%36%36%37%39%45%58%64%
Dew Point 47°F47°F47°F46°F46°F44°F43°F42°F42°F42°F42°F42°F44°F45°F46°F45°F43°F42°F42°F41°F42°F49°F46°F42°F41°F41°F40°F40°F40°F40°F40°F40°F40°F41°F41°F42°F44°F45°F47°F48°F49°F49°F49°F49°F50°F53°F54°F52°F
Pressure 30.03"30"30.03"30.03"30.06"30.06"30.09"30.09"30.09"30.09"30.09"30.12"30.12"30.12"30.12"30.12"30.09"30.09"30.06"30.03"30.03"30.03"30.06"30.06"30.09"30.09"30.09"30.09"30.09"30.12"30.12"30.09"30.12"30.12"30.12"30.15"30.18"30.18"30.18"30.18"30.15"30.15"30.12"30.12"30.12"30.12"30.15"30.15"
Wind Speed 3.8 mph3.6 mph3.1 mph3.1 mph2.7 mph2.5 mph2.5 mph2.4 mph2.4 mph1.9 mph1.9 mph1.6 mph1.3 mph0.8 mph1.9 mph3.7 mph4.3 mph4.7 mph4.6 mph4.4 mph4 mph2.3 mph2.8 mph2.9 mph2.6 mph2.5 mph2.6 mph2.5 mph2.2 mph1.5 mph2 mph2.3 mph2 mph1.7 mph1.1 mph0.4 mph1.4 mph2.9 mph3.8 mph4.9 mph6.5 mph7.7 mph8.5 mph8.8 mph8 mph7.4 mph5.3 mph5.1 mph
Wind
Direction

N
18°
NNE
24°
NNE
25°
NNE
25°
NNE
11°
N
39°
NE
36°
NE
33°
NNE
33°
NNE
37°
NE
34°
NE
31°
NNE
319°
NW
303°
WNW
309°
NW
312°
NW
314°
NW
307°
NW
303°
WNW
309°
NW
350°
N
55°
NE
81°
E
103°
ESE
125°
SE
145°
SE
141°
SE
154°
SSE
196°
SSW
181°
S
187°
S
224°
SW
226°
SW
249°
WSW
284°
WNW
328°
NNW
322°
NW
330°
NNW
334°
NNW
334°
NNW
326°
NW
333°
NNW
341°
NNW
352°
N
357°
N
359°
N

N

Daily Forecast

Date High Low Precip. Humidity
Today
Oct 5

Clouds
77 °F
48 °F
0%
29%
Thursday
Oct 6

Clear
79 °F
51 °F
0%
31%
Friday
Oct 7

Clouds
79 °F
55 °F
0%
38%
Saturday
Oct 8

Clear
70 °F
49 °F
0%
24%
Sunday
Oct 9

Clear
71 °F
44 °F
0%
23%
Monday
Oct 10

Clouds
79 °F
50 °F
0%
29%
Tuesday
Oct 11

Clear
81 °F
56 °F
0%
44%
Wednesday
Oct 12

Clear
83 °F
60 °F
0%
44%
Thursday
Oct 13

Rain
83 °F
60 °F
100%
46%
Friday
Oct 14

Clouds
77 °F
58 °F
29%
52%
Saturday
Oct 15

Clouds
69 °F
55 °F
0%
68%
Sunday
Oct 16

Clouds
75 °F
52 °F
0%
52%
Monday
Oct 17

Clouds
77 °F
55 °F
0%
47%
Tuesday
Oct 18

Rain
76 °F
63 °F
67%
87%
Wednesday
Oct 19

Clouds
64 °F
44 °F
0%
32%
Thursday
Oct 20

Clear
66 °F
39 °F
0%
32%

Temperature 8-14 Day Outlook



Precipitation 8-14 Day Outlook




Quick Links
Lake Guntersville News
Lake Guntersville Photos
Lake Guntersville Videos




About Us
Contact Us
Site Map
Search Site
Advertise With Us
   
www.LakeGuntersville.info
THE LAKE GUNTERSVILLE WEBSITE

Copyright 2022, Lakes Online
Privacy    |    Legal